LAN890 SLLP-SCCF

Flight info

Callsign LAN890
Flight time 1h 3m
Altitude 36000
Route SIKOL DCT GEKOR DCT EMPEX UL309 TOKOL DCT VUREL VUREL3F
Aircraft A320/M-SDE3FGHIRWY/LB1

Departure

Time 2026-04-23 03:23
Airport El Alto International Airport (SLLP)

Arrival

Time 2026-04-23 04:26
Airport El Loa Airport (SCCF)
Time Latitude Longitude Altitude Speed Heading
2026-04-23 03:02 -16.50971 -68.17688 13335 ft 0 kts 27°
2026-04-23 03:16 -16.50975 -68.17690 13336 ft 4 kts 28°
2026-04-23 03:16 -16.50997 -68.17706 13336 ft 4 kts 52°
2026-04-23 03:16 -16.51004 -68.17737 13334 ft 1 kts 119°
2026-04-23 03:19 -16.51007 -68.17730 13334 ft 3 kts 118°
2026-04-23 03:19 -16.51026 -68.17698 13336 ft 8 kts 119°
2026-04-23 03:19 -16.51059 -68.17638 13335 ft 12 kts 122°
2026-04-23 03:19 -16.51116 -68.17565 13332 ft 14 kts 130°
2026-04-23 03:20 -16.51162 -68.17509 13331 ft 16 kts 130°
2026-04-23 03:20 -16.51236 -68.17417 13329 ft 18 kts 131°
2026-04-23 03:20 -16.51344 -68.17364 13325 ft 18 kts 181°
2026-04-23 03:20 -16.51385 -68.17368 13326 ft 1 kts 212°
2026-04-23 03:21 -16.51389 -68.17377 13326 ft 4 kts 248°
2026-04-23 03:21 -16.51391 -68.17398 13326 ft 0 kts 272°
2026-04-23 03:21 -16.51391 -68.17399 13326 ft 0 kts 272°
2026-04-23 03:21 -16.51389 -68.17441 13325 ft 27 kts 271°
2026-04-23 03:22 -16.51380 -68.17844 13318 ft 83 kts 271°
2026-04-23 03:22 -16.51357 -68.18614 13295 ft 129 kts 271°
2026-04-23 03:22 -16.51322 -68.19695 13255 ft 169 kts 272°
2026-04-23 03:22 -16.51253 -68.21010 13388 ft 183 kts 271°
2026-04-23 03:23 -16.51196 -68.22330 13986 ft 184 kts 270°
2026-04-23 03:23 -16.51160 -68.23674 14382 ft 191 kts 272°
2026-04-23 03:23 -16.51125 -68.25091 14770 ft 195 kts 272°
2026-04-23 03:23 -16.51087 -68.26519 14965 ft 207 kts 272°
2026-04-23 03:24 -16.51042 -68.28073 15100 ft 223 kts 272°
2026-04-23 03:24 -16.50992 -68.29742 15235 ft 239 kts 271°
2026-04-23 03:24 -16.51350 -68.31454 15418 ft 250 kts 237°
2026-04-23 03:24 -16.52645 -68.32656 15648 ft 257 kts 200°
2026-04-23 03:25 -16.54421 -68.32838 15897 ft 263 kts 164°
2026-04-23 03:25 -16.56014 -68.31900 16107 ft 272 kts 130°
2026-04-23 03:25 -16.57153 -68.30268 16361 ft 286 kts 119°
2026-04-23 03:25 -16.58124 -68.28392 16638 ft 301 kts 116°
2026-04-23 03:26 -16.59071 -68.26385 16911 ft 317 kts 115°
2026-04-23 03:26 -16.60064 -68.24298 17323 ft 325 kts 116°
2026-04-23 03:26 -16.61112 -68.22188 17862 ft 329 kts 117°
2026-04-23 03:26 -16.62201 -68.20079 18413 ft 333 kts 118°
2026-04-23 03:27 -16.63328 -68.17956 18950 ft 336 kts 119°
2026-04-23 03:27 -16.64480 -68.15821 19395 ft 339 kts 119°
2026-04-23 03:27 -16.65652 -68.13672 19832 ft 343 kts 119°
2026-04-23 03:27 -16.66838 -68.11498 20261 ft 346 kts 119°
2026-04-23 03:28 -16.68024 -68.09329 20565 ft 355 kts 119°
2026-04-23 03:28 -16.69287 -68.07014 20648 ft 370 kts 118°
2026-04-23 03:28 -16.70561 -68.04659 20725 ft 385 kts 118°
2026-04-23 03:28 -16.71890 -68.02195 20931 ft 394 kts 118°
2026-04-23 03:29 -16.73246 -67.99691 21295 ft 398 kts 121°
2026-04-23 03:29 -16.75062 -67.97514 21738 ft 401 kts 143°
2026-04-23 03:29 -16.77557 -67.96208 22145 ft 405 kts 164°
2026-04-23 03:29 -16.80338 -67.95709 22530 ft 409 kts 176°
2026-04-23 03:30 -16.83194 -67.95696 22960 ft 413 kts 182°
2026-04-23 03:30 -16.86074 -67.95862 23405 ft 416 kts 183°
2026-04-23 03:30 -16.88981 -67.96000 23837 ft 419 kts 181°
2026-04-23 03:30 -16.91909 -67.96016 24198 ft 422 kts 179°
2026-04-23 03:31 -16.94857 -67.95896 24569 ft 425 kts 177°
2026-04-23 03:31 -16.97812 -67.95676 24952 ft 427 kts 175°
2026-04-23 03:31 -17.00784 -67.95402 25317 ft 429 kts 175°
2026-04-23 03:31 -17.03765 -67.95116 25667 ft 431 kts 175°
2026-04-23 03:32 -17.06760 -67.94842 26015 ft 433 kts 176°
2026-04-23 03:32 -17.09773 -67.94589 26361 ft 435 kts 176°
2026-04-23 03:32 -17.12762 -67.94359 26696 ft 438 kts 177°
2026-04-23 03:32 -17.15805 -67.94139 27028 ft 439 kts 177°
2026-04-23 03:33 -17.18867 -67.93922 27358 ft 442 kts 177°
2026-04-23 03:33 -17.21940 -67.93701 27680 ft 444 kts 177°
2026-04-23 03:33 -17.25028 -67.93472 27984 ft 445 kts 177°
2026-04-23 03:33 -17.28125 -67.93239 28305 ft 447 kts 177°
2026-04-23 03:34 -17.31241 -67.93002 28607 ft 450 kts 177°
2026-04-23 03:34 -17.34368 -67.92926 28921 ft 450 kts 186°
2026-04-23 03:34 -17.37455 -67.93399 29223 ft 449 kts 196°
2026-04-23 03:34 -17.40413 -67.94420 29501 ft 448 kts 205°
2026-04-23 03:35 -17.43162 -67.95946 29777 ft 447 kts 215°
2026-04-23 03:35 -17.45729 -67.97786 30053 ft 448 kts 216°
2026-04-23 03:35 -17.48306 -67.99645 30295 ft 450 kts 216°
2026-04-23 03:35 -17.50896 -68.01507 30527 ft 452 kts 216°
2026-04-23 03:36 -17.53496 -68.03371 30753 ft 454 kts 216°
2026-04-23 03:36 -17.56109 -68.05242 30967 ft 456 kts 216°
2026-04-23 03:36 -17.58731 -68.07119 31183 ft 457 kts 216°
2026-04-23 03:36 -17.61365 -68.09006 31394 ft 459 kts 216°
2026-04-23 03:37 -17.64005 -68.10899 31598 ft 461 kts 216°
2026-04-23 03:37 -17.66654 -68.12800 31818 ft 462 kts 216°
2026-04-23 03:37 -17.69301 -68.14702 32124 ft 461 kts 216°
2026-04-23 03:37 -17.71908 -68.16579 32424 ft 460 kts 216°
2026-04-23 03:38 -17.74539 -68.18474 32734 ft 459 kts 216°
2026-04-23 03:38 -17.77171 -68.20371 33024 ft 459 kts 216°
2026-04-23 03:38 -17.79797 -68.22263 33320 ft 458 kts 216°
2026-04-23 03:38 -17.82434 -68.24165 33618 ft 457 kts 216°
2026-04-23 03:39 -17.85053 -68.26055 33918 ft 457 kts 216°
2026-04-23 03:39 -17.87679 -68.27952 34214 ft 456 kts 216°
2026-04-23 03:39 -17.90292 -68.29838 34478 ft 456 kts 216°
2026-04-23 03:39 -17.92908 -68.31724 34719 ft 456 kts 216°
2026-04-23 03:40 -17.95525 -68.33608 34952 ft 456 kts 216°
2026-04-23 03:40 -17.98105 -68.35470 35166 ft 456 kts 217°
2026-04-23 03:40 -18.00730 -68.37341 35377 ft 457 kts 213°
2026-04-23 03:40 -18.03554 -68.38884 35599 ft 459 kts 204°
2026-04-23 03:41 -18.06596 -68.39926 35802 ft 461 kts 194°
2026-04-23 03:41 -18.09774 -68.40444 35974 ft 464 kts 187°
2026-04-23 03:41 -18.12986 -68.40778 36146 ft 465 kts 187°
2026-04-23 03:41 -18.16203 -68.41117 36216 ft 462 kts 187°
2026-04-23 03:42 -18.22580 -68.41792 36219 ft 460 kts 187°
2026-04-23 03:42 -18.28955 -68.42472 36214 ft 461 kts 187°
2026-04-23 03:43 -18.35347 -68.43156 36208 ft 461 kts 187°
2026-04-23 03:43 -18.41740 -68.43839 36202 ft 462 kts 188°
2026-04-23 03:44 -18.48144 -68.44526 36194 ft 462 kts 188°
2026-04-23 03:44 -18.54510 -68.45209 36192 ft 463 kts 188°
2026-04-23 03:45 -18.60923 -68.45889 36187 ft 463 kts 188°
2026-04-23 03:45 -18.67335 -68.46571 36188 ft 464 kts 188°
2026-04-23 03:46 -18.73766 -68.47260 36189 ft 464 kts 188°
2026-04-23 03:46 -18.80189 -68.47948 36191 ft 464 kts 188°
2026-04-23 03:47 -18.86614 -68.48644 36191 ft 464 kts 188°
2026-04-23 03:47 -18.93035 -68.49336 36192 ft 464 kts 188°
2026-04-23 03:48 -18.99458 -68.50027 36200 ft 464 kts 188°
2026-04-23 03:48 -19.05886 -68.50721 36197 ft 464 kts 189°
2026-04-23 03:49 -19.12305 -68.51405 36197 ft 463 kts 189°
2026-04-23 03:49 -19.18673 -68.52089 36197 ft 462 kts 189°
2026-04-23 03:50 -19.25080 -68.52786 36192 ft 463 kts 189°
2026-04-23 03:50 -19.31491 -68.53481 36192 ft 463 kts 189°
2026-04-23 03:51 -19.37902 -68.54170 36195 ft 463 kts 189°
2026-04-23 03:51 -19.44306 -68.54862 36198 ft 462 kts 189°
2026-04-23 03:52 -19.50711 -68.55555 36200 ft 462 kts 189°
2026-04-23 03:52 -19.57118 -68.56246 36200 ft 463 kts 189°
2026-04-23 03:53 -19.63531 -68.56934 36202 ft 463 kts 189°
2026-04-23 03:53 -19.69937 -68.57634 36213 ft 463 kts 189°
2026-04-23 03:54 -19.76322 -68.58327 36219 ft 463 kts 189°
2026-04-23 03:54 -19.82748 -68.59025 36222 ft 464 kts 189°
2026-04-23 03:55 -19.89170 -68.59721 36234 ft 464 kts 190°
2026-04-23 03:55 -19.95606 -68.60416 36234 ft 465 kts 190°
2026-04-23 03:56 -20.02048 -68.61122 36240 ft 465 kts 190°
2026-04-23 03:56 -20.08481 -68.61829 36244 ft 465 kts 190°
2026-04-23 03:57 -20.14933 -68.62531 36239 ft 466 kts 190°
2026-04-23 03:57 -20.21385 -68.63240 36244 ft 466 kts 191°
2026-04-23 03:58 -20.27846 -68.63947 36251 ft 467 kts 190°
2026-04-23 03:58 -20.34265 -68.64641 36249 ft 466 kts 190°
2026-04-23 03:59 -20.40724 -68.65344 36258 ft 466 kts 190°
2026-04-23 03:59 -20.47182 -68.66061 36253 ft 467 kts 190°
2026-04-23 04:00 -20.53637 -68.66774 36238 ft 466 kts 190°
2026-04-23 04:00 -20.60091 -68.67451 36257 ft 467 kts 190°
2026-04-23 04:01 -20.66557 -68.68116 36260 ft 466 kts 190°
2026-04-23 04:01 -20.73021 -68.68793 36256 ft 467 kts 190°
2026-04-23 04:02 -20.79447 -68.69474 36250 ft 467 kts 191°
2026-04-23 04:02 -20.85915 -68.70156 36263 ft 467 kts 191°
2026-04-23 04:03 -20.92376 -68.70839 36261 ft 467 kts 191°
2026-04-23 04:03 -20.98829 -68.71531 36264 ft 466 kts 191°
2026-04-23 04:04 -21.05286 -68.72221 36261 ft 466 kts 191°
2026-04-23 04:04 -21.11749 -68.72912 36258 ft 465 kts 192°
2026-04-23 04:05 -21.17852 -68.74749 36243 ft 450 kts 212°
2026-04-23 04:05 -21.22922 -68.78426 36227 ft 435 kts 230°
2026-04-23 04:06 -21.27307 -68.82879 36219 ft 434 kts 230°
2026-04-23 04:06 -21.31712 -68.87319 36087 ft 437 kts 229°
2026-04-23 04:07 -21.33923 -68.89551 35567 ft 436 kts 229°
2026-04-23 04:07 -21.36119 -68.91771 34980 ft 433 kts 229°
2026-04-23 04:07 -21.38298 -68.93979 33934 ft 441 kts 229°
2026-04-23 04:07 -21.40533 -68.96252 33166 ft 441 kts 229°
2026-04-23 04:08 -21.42744 -68.98494 32766 ft 432 kts 229°
2026-04-23 04:08 -21.44905 -69.00678 32512 ft 421 kts 229°
2026-04-23 04:08 -21.47011 -69.02809 32265 ft 411 kts 229°
2026-04-23 04:08 -21.49071 -69.04899 31850 ft 406 kts 229°
2026-04-23 04:09 -21.51112 -69.06978 31361 ft 403 kts 229°
2026-04-23 04:09 -21.53135 -69.09039 30877 ft 400 kts 229°
2026-04-23 04:09 -21.55147 -69.11086 30405 ft 397 kts 229°
2026-04-23 04:09 -21.57148 -69.13122 29891 ft 395 kts 229°
2026-04-23 04:10 -21.59128 -69.15138 29443 ft 390 kts 229°
2026-04-23 04:10 -21.61086 -69.17134 29011 ft 385 kts 229°
2026-04-23 04:10 -21.63020 -69.19106 28568 ft 381 kts 229°
2026-04-23 04:10 -21.64932 -69.21057 28133 ft 377 kts 229°
2026-04-23 04:11 -21.66829 -69.22987 27745 ft 372 kts 229°
2026-04-23 04:11 -21.68071 -69.24249 27482 ft 369 kts 229°
2026-04-23 04:11 -21.69927 -69.26139 27056 ft 366 kts 229°
2026-04-23 04:11 -21.71764 -69.28013 26627 ft 363 kts 229°
2026-04-23 04:12 -21.73586 -69.29877 26186 ft 360 kts 229°
2026-04-23 04:12 -21.75434 -69.31690 25635 ft 362 kts 221°
2026-04-23 04:12 -21.78456 -69.33275 24726 ft 373 kts 198°
2026-04-23 04:12 -21.81048 -69.33541 24102 ft 379 kts 179°
2026-04-23 04:13 -21.82806 -69.33228 23690 ft 382 kts 166°
2026-04-23 04:13 -21.85229 -69.32054 23002 ft 384 kts 150°
2026-04-23 04:13 -21.88202 -69.30019 22114 ft 380 kts 149°
2026-04-23 04:13 -21.89703 -69.28994 21711 ft 378 kts 149°
2026-04-23 04:14 -21.91917 -69.27486 21130 ft 374 kts 149°
2026-04-23 04:14 -21.94104 -69.26000 20583 ft 370 kts 149°
2026-04-23 04:14 -21.96271 -69.24528 20034 ft 366 kts 149°
2026-04-23 04:14 -21.98385 -69.23091 19510 ft 362 kts 149°
2026-04-23 04:15 -22.00506 -69.21643 18987 ft 359 kts 149°
2026-04-23 04:15 -22.02608 -69.20208 18479 ft 356 kts 148°
2026-04-23 04:15 -22.06752 -69.17379 17376 ft 348 kts 148°
2026-04-23 04:16 -22.08793 -69.16111 17203 ft 328 kts 158°
2026-04-23 04:16 -22.10903 -69.15425 17082 ft 308 kts 173°
2026-04-23 04:16 -22.12998 -69.15301 16953 ft 296 kts 185°
2026-04-23 04:16 -22.15022 -69.15380 16833 ft 287 kts 184°
2026-04-23 04:17 -22.16979 -69.15447 16711 ft 276 kts 184°
2026-04-23 04:17 -22.18875 -69.15507 16514 ft 269 kts 184°
2026-04-23 04:17 -22.20738 -69.15565 16226 ft 266 kts 184°
2026-04-23 04:17 -22.22577 -69.15625 15880 ft 262 kts 184°
2026-04-23 04:18 -22.24387 -69.15686 15430 ft 259 kts 184°
2026-04-23 04:18 -22.26177 -69.15748 15010 ft 256 kts 183°
2026-04-23 04:18 -22.27918 -69.15807 14615 ft 252 kts 182°
2026-04-23 04:18 -22.29657 -69.15865 14215 ft 248 kts 182°
2026-04-23 04:19 -22.31377 -69.15919 13784 ft 246 kts 182°
2026-04-23 04:19 -22.33081 -69.15974 13338 ft 244 kts 182°
2026-04-23 04:19 -22.34763 -69.16028 12906 ft 240 kts 182°
2026-04-23 04:19 -22.36427 -69.16083 12468 ft 238 kts 182°
2026-04-23 04:20 -22.38072 -69.16138 12044 ft 235 kts 181°
2026-04-23 04:20 -22.39690 -69.16194 11840 ft 227 kts 181°
2026-04-23 04:20 -22.41218 -69.16247 11734 ft 214 kts 181°
2026-04-23 04:20 -22.42663 -69.16239 11596 ft 202 kts 170°
2026-04-23 04:21 -22.43941 -69.15685 11339 ft 198 kts 141°
2026-04-23 04:21 -22.44792 -69.14556 11117 ft 193 kts 112°
2026-04-23 04:21 -22.45248 -69.13202 10892 ft 190 kts 109°
2026-04-23 04:21 -22.45687 -69.11867 10693 ft 187 kts 109°
2026-04-23 04:22 -22.46122 -69.10556 10500 ft 184 kts 109°
2026-04-23 04:22 -22.46545 -69.09277 10366 ft 178 kts 109°
2026-04-23 04:22 -22.46955 -69.08035 10184 ft 173 kts 109°
2026-04-23 04:22 -22.47354 -69.06829 9993 ft 169 kts 109°
2026-04-23 04:23 -22.47746 -69.05647 9816 ft 167 kts 109°
2026-04-23 04:23 -22.48133 -69.04474 9624 ft 165 kts 109°
2026-04-23 04:23 -22.48519 -69.03303 9439 ft 165 kts 109°
2026-04-23 04:23 -22.48899 -69.02155 9210 ft 164 kts 109°
2026-04-23 04:24 -22.49224 -69.00977 9027 ft 163 kts 101°
2026-04-23 04:24 -22.49366 -68.99762 8837 ft 163 kts 93°
2026-04-23 04:24 -22.49447 -68.98547 8620 ft 162 kts 93°
2026-04-23 04:24 -22.49533 -68.97335 8431 ft 161 kts 94°
2026-04-23 04:25 -22.49608 -68.96144 8179 ft 157 kts 94°
2026-04-23 04:25 -22.49669 -68.94974 7920 ft 154 kts 94°
2026-04-23 04:25 -22.49754 -68.93837 7710 ft 151 kts 95°
2026-04-23 04:25 -22.49845 -68.92704 7564 ft 151 kts 94°
2026-04-23 04:26 -22.49923 -68.91579 7464 ft 150 kts 94°
2026-04-23 04:26 -22.49987 -68.90666 7516 ft 80 kts 95°
2026-04-23 04:26 -22.50011 -68.90314 7540 ft 32 kts 94°
2026-04-23 04:26 -22.50025 -68.90107 7557 ft 24 kts 93°
2026-04-23 04:27 -22.50037 -68.89946 7565 ft 19 kts 95°
2026-04-23 04:27 -22.50044 -68.89818 7574 ft 14 kts 89°
2026-04-23 04:27 -22.50033 -68.89735 7580 ft 8 kts 76°
2026-04-23 04:28 -22.49992 -68.89616 7588 ft 10 kts 64°
2026-04-23 04:28 -22.49958 -68.89542 7591 ft 12 kts 64°
2026-04-23 04:28 -22.49904 -68.89497 7593 ft 10 kts 331°
2026-04-23 04:28 -22.49890 -68.89573 7588 ft 12 kts 274°
2026-04-23 04:29 -22.49883 -68.89676 7582 ft 15 kts 274°
2026-04-23 04:29 -22.49874 -68.89800 7576 ft 18 kts 274°
2026-04-23 04:29 -22.49863 -68.89957 7567 ft 24 kts 274°
2026-04-23 04:29 -22.49850 -68.90162 7551 ft 31 kts 274°
2026-04-23 04:30 -22.49832 -68.90414 7534 ft 37 kts 274°
2026-04-23 04:30 -22.49816 -68.90650 7513 ft 27 kts 275°
2026-04-23 04:30 -22.49794 -68.90771 7500 ft 10 kts 319°
2026-04-23 04:30 -22.49731 -68.90775 7498 ft 7 kts
2026-04-23 04:31 -22.49693 -68.90771 7502 ft 4 kts
2026-04-23 04:31 -22.49663 -68.90779 7503 ft 5 kts 320°
2026-04-23 04:31 -22.49638 -68.90798 7499 ft 5 kts 354°
2026-04-23 04:31 -22.49602 -68.90797 7508 ft 1 kts
2026-04-23 04:32 -22.49591 -68.90796 7498 ft 0 kts